Regional Weather Roundup
Issued by NWS

Home | Current Version | Previous Version | Text Only | Print | Product List | Glossary Off
Versions: 1 2 3 4 5 6 7 8 9 10 11 12 13 14 15 16 17 18 19 20 21 22 23 24 25 26 27 28 29 30 31 32 33 34 35 36 37 38 39 40 41 42 43 44 45 46 47 48 49 50

092
ASUS43 KBIS 131702
RWRND

NORTH DAKOTA REGIONAL WEATHER ROUNDUP
NATIONAL WEATHER SERVICE BISMARCK ND
1100 AM CST SAT FEB 13 2016

NOTE: "FAIR" INDICATES FEW OR NO CLOUDS BELOW 12,000 FEET WITH NO
SIGNIFICANT WEATHER AND/OR OBSTRUCTIONS TO VISIBILITY.


NDZ001>003-009>011-017-131800-
NORTHWEST NORTH DAKOTA

CITY           SKY/WX    TMP DP  RH WIND       PRES   REMARKS
WILLISTON      CLOUDY    18  11  74 S12       29.95F WCI   5
MINOT          CLOUDY    15   1  53 SE15      30.11F WCI   0
MINOT AFB      CLOUDY    14   4  64 SE15      30.10F WCI  -2
$$

NDZ018>021-031>035-040>046-131800-
SOUTHWEST NORTH DAKOTA

CITY           SKY/WX    TMP DP  RH WIND       PRES   REMARKS
BISMARCK       CLOUDY    13   0  56 SE18      30.18F WCI  -4
DICKINSON      LGT SNOW  13   9  84 S21G29    29.95F FOG     WCI  -5
GARRISON         N/A     10   5  80 S22G30    30.09F WCI -10
HETTINGER ARPT FOG       16  14  92 SE13      30.00F VSB 3/4 WCI   2
$$

NDZ004>008-012>016-024-026-027-054-131800-
NORTHEAST NORTH DAKOTA

CITY           SKY/WX    TMP DP  RH WIND       PRES   REMARKS
GRAND FORKS    CLOUDY     0  -9  65 S16       30.47F WCI -20
GRND FRKS AFB  CLOUDY     0  -9  67 S16       30.44F WCI -20
DEVILS LAKE    CLOUDY     1  -7  68 SE23      30.30F WCI -22
$$

NDZ022-023-025-028>030-036>039-047>053-131800-
SOUTHEAST NORTH DAKOTA

CITY           SKY/WX    TMP DP  RH WIND       PRES   REMARKS
FARGO          CLOUDY     3  -8  60 SE15      30.49F WCI -16
JAMESTOWN      CLOUDY     4  -5  66 SE16      30.31F WCI -15
$$





USA.gov is the U.S. government's official web portal to all federal, state and local government web resources and services.